WHSE22 YGLI-YBOK

Flight info

Callsign WHSE22
Flight time 0h 55m
Altitude 6000
Route DCT LAREG DCT UDERI DCT LUKEY
Aircraft H60/M-SDFGRY/LB1

Departure

Time 2026-05-05 12:12
Airport Glen Innes Airport (YGLI)

Arrival

Time 2026-05-05 13:07
Airport Oakey Army Aviation Centre (YBOK)
Time Latitude Longitude Altitude Speed Heading
2026-05-05 11:53 -29.67648 151.69398 3434 ft 0 kts 330°
2026-05-05 12:11 -29.67631 151.69395 3451 ft 2 kts 321°
2026-05-05 12:11 -29.67656 151.69371 3505 ft 10 kts 312°
2026-05-05 12:11 -29.67646 151.69223 3618 ft 25 kts 330°
2026-05-05 12:12 -29.67541 151.69096 3783 ft 34 kts 335°
2026-05-05 12:12 -29.67166 151.68994 4120 ft 76 kts 348°
2026-05-05 12:12 -29.66527 151.68862 4595 ft 108 kts 354°
2026-05-05 12:12 -29.65732 151.68996 4978 ft 123 kts 15°
2026-05-05 12:13 -29.64919 151.69382 5300 ft 129 kts 24°
2026-05-05 12:13 -29.64100 151.69850 5565 ft 134 kts 26°
2026-05-05 12:13 -29.63274 151.70378 5737 ft 138 kts 28°
2026-05-05 12:13 -29.62438 151.70956 5828 ft 142 kts 30°
2026-05-05 12:14 -29.61592 151.71575 5825 ft 146 kts 31°
2026-05-05 12:14 -29.60688 151.72120 5789 ft 148 kts 19°
2026-05-05 12:14 -29.59666 151.72334 5715 ft 151 kts
2026-05-05 12:14 -29.58610 151.72407 5640 ft 153 kts
2026-05-05 12:15 -29.57547 151.72429 5594 ft 152 kts 359°
2026-05-05 12:15 -29.56504 151.72394 5566 ft 151 kts 356°
2026-05-05 12:15 -29.55457 151.72308 5550 ft 150 kts 355°
2026-05-05 12:15 -29.54419 151.72201 5546 ft 150 kts 354°
2026-05-05 12:16 -29.53371 151.72134 5497 ft 153 kts 359°
2026-05-05 12:16 -29.52292 151.72194 5383 ft 156 kts
2026-05-05 12:16 -29.51205 151.72337 5269 ft 158 kts
2026-05-05 12:16 -29.50112 151.72437 5176 ft 157 kts
2026-05-05 12:17 -29.49024 151.72481 5117 ft 156 kts
2026-05-05 12:17 -29.47949 151.72473 5081 ft 154 kts 358°
2026-05-05 12:17 -29.46882 151.72444 5061 ft 153 kts 360°
2026-05-05 12:17 -29.45819 151.72487 5048 ft 153 kts
2026-05-05 12:18 -29.44760 151.72573 5038 ft 152 kts
2026-05-05 12:18 -29.43702 151.72620 5046 ft 151 kts
2026-05-05 12:18 -29.42652 151.72632 5050 ft 151 kts 359°
2026-05-05 12:18 -29.41605 151.72619 5058 ft 151 kts 359°
2026-05-05 12:19 -29.40566 151.72575 5061 ft 151 kts 357°
2026-05-05 12:19 -29.39519 151.72473 5060 ft 151 kts 354°
2026-05-05 12:19 -29.38479 151.72311 5059 ft 151 kts 351°
2026-05-05 12:19 -29.37431 151.72200 5048 ft 152 kts 359°
2026-05-05 12:20 -29.36374 151.72301 5015 ft 153 kts
2026-05-05 12:20 -29.35314 151.72392 5000 ft 152 kts
2026-05-05 12:20 -29.34259 151.72470 4994 ft 152 kts
2026-05-05 12:20 -29.33204 151.72532 4966 ft 152 kts
2026-05-05 12:21 -29.32137 151.72582 4912 ft 156 kts
2026-05-05 12:21 -29.31034 151.72695 4722 ft 162 kts
2026-05-05 12:21 -29.29911 151.72845 4626 ft 162 kts
2026-05-05 12:21 -29.28806 151.73025 4625 ft 159 kts
2026-05-05 12:22 -29.28083 151.73163 4647 ft 158 kts 10°
2026-05-05 12:22 -29.27010 151.73404 4700 ft 156 kts 12°
2026-05-05 12:22 -29.25601 151.73793 4774 ft 155 kts 14°
2026-05-05 12:22 -29.24575 151.74135 4819 ft 156 kts 17°
2026-05-05 12:23 -29.23542 151.74529 4862 ft 156 kts 19°
2026-05-05 12:23 -29.22838 151.74780 4882 ft 157 kts 15°
2026-05-05 12:23 -29.21432 151.75176 4778 ft 157 kts 13°
2026-05-05 12:23 -29.20375 151.75465 4717 ft 155 kts 13°
2026-05-05 12:24 -29.19677 151.75656 4592 ft 155 kts 13°
2026-05-05 12:24 -29.18626 151.75941 4578 ft 156 kts 13°
2026-05-05 12:24 -29.17570 151.76226 4589 ft 156 kts 13°
2026-05-05 12:24 -29.16515 151.76511 4598 ft 156 kts 13°
2026-05-05 12:25 -29.15461 151.76796 4605 ft 156 kts 13°
2026-05-05 12:25 -29.14409 151.77081 4608 ft 156 kts 13°
2026-05-05 12:25 -29.13355 151.77366 4610 ft 156 kts 13°
2026-05-05 12:25 -29.12301 151.77651 4610 ft 156 kts 13°
2026-05-05 12:26 -29.11246 151.77936 4610 ft 156 kts 13°
2026-05-05 12:26 -29.10190 151.78219 4611 ft 156 kts 13°
2026-05-05 12:26 -29.09133 151.78502 4614 ft 156 kts 13°
2026-05-05 12:26 -29.08074 151.78787 4612 ft 156 kts 13°
2026-05-05 12:27 -29.07018 151.79070 4611 ft 156 kts 13°
2026-05-05 12:27 -29.05960 151.79354 4619 ft 156 kts 13°
2026-05-05 12:27 -29.04914 151.79633 4861 ft 156 kts 13°
2026-05-05 12:27 -29.03838 151.79924 5125 ft 156 kts 13°
2026-05-05 12:28 -29.02792 151.80212 5353 ft 157 kts 13°
2026-05-05 12:28 -29.01732 151.80508 5553 ft 157 kts 13°
2026-05-05 12:28 -29.00670 151.80806 5726 ft 158 kts 13°
2026-05-05 12:28 -28.99600 151.81110 5879 ft 158 kts 13°
2026-05-05 12:29 -28.98529 151.81415 5933 ft 158 kts 13°
2026-05-05 12:29 -28.97459 151.81719 5941 ft 159 kts 13°
2026-05-05 12:29 -28.96390 151.82023 5978 ft 158 kts 13°
2026-05-05 12:29 -28.95322 151.82325 5981 ft 157 kts 13°
2026-05-05 12:30 -28.94260 151.82624 5989 ft 157 kts 13°
2026-05-05 12:30 -28.93196 151.82921 5989 ft 157 kts 13°
2026-05-05 12:30 -28.92131 151.83220 5990 ft 157 kts 13°
2026-05-05 12:30 -28.91066 151.83518 5993 ft 157 kts 13°
2026-05-05 12:31 -28.90003 151.83815 5992 ft 157 kts 13°
2026-05-05 12:31 -28.88939 151.84109 5992 ft 158 kts 13°
2026-05-05 12:31 -28.87872 151.84403 5990 ft 158 kts 13°
2026-05-05 12:31 -28.86805 151.84697 5993 ft 158 kts 13°
2026-05-05 12:32 -28.85738 151.84986 5992 ft 157 kts 13°
2026-05-05 12:32 -28.84682 151.85270 5992 ft 158 kts 13°
2026-05-05 12:32 -28.83614 151.85556 5993 ft 158 kts 13°
2026-05-05 12:32 -28.82546 151.85845 5992 ft 158 kts 13°
2026-05-05 12:33 -28.81474 151.86132 5993 ft 158 kts 13°
2026-05-05 12:33 -28.80400 151.86418 5992 ft 159 kts 13°
2026-05-05 12:33 -28.79329 151.86702 5993 ft 158 kts 13°
2026-05-05 12:33 -28.78256 151.86985 5994 ft 158 kts 13°
2026-05-05 12:34 -28.77182 151.87267 5994 ft 159 kts 13°
2026-05-05 12:34 -28.76109 151.87547 5993 ft 158 kts 13°
2026-05-05 12:34 -28.75035 151.87829 5990 ft 158 kts 13°
2026-05-05 12:34 -28.73976 151.88109 5989 ft 158 kts 13°
2026-05-05 12:35 -28.72898 151.88393 5987 ft 159 kts 13°
2026-05-05 12:35 -28.71825 151.88670 5991 ft 157 kts 13°
2026-05-05 12:35 -28.70761 151.88941 5994 ft 157 kts 13°
2026-05-05 12:35 -28.69704 151.89163 5993 ft 151 kts
2026-05-05 12:36 -28.68683 151.89229 5991 ft 147 kts
2026-05-05 12:36 -28.67635 151.89195 5988 ft 158 kts 359°
2026-05-05 12:36 -28.66532 151.89157 5991 ft 157 kts 359°
2026-05-05 12:36 -28.65438 151.89118 5989 ft 158 kts 359°
2026-05-05 12:37 -28.64344 151.89078 5990 ft 158 kts 359°
2026-05-05 12:37 -28.63247 151.89035 5991 ft 157 kts 359°
2026-05-05 12:37 -28.62151 151.88994 5989 ft 157 kts 359°
2026-05-05 12:37 -28.61090 151.88836 5988 ft 152 kts 349°
2026-05-05 12:38 -28.60099 151.88446 5987 ft 150 kts 336°
2026-05-05 12:38 -28.59182 151.87857 5985 ft 158 kts 330°
2026-05-05 12:38 -28.58220 151.87215 5987 ft 159 kts 330°
2026-05-05 12:38 -28.57278 151.86588 5987 ft 158 kts 330°
2026-05-05 12:39 -28.56324 151.85952 5983 ft 158 kts 330°
2026-05-05 12:39 -28.55371 151.85318 5980 ft 158 kts 330°
2026-05-05 12:39 -28.54418 151.84685 5984 ft 159 kts 330°
2026-05-05 12:39 -28.53467 151.84052 5984 ft 158 kts 330°
2026-05-05 12:40 -28.52513 151.83416 5980 ft 158 kts 330°
2026-05-05 12:40 -28.51566 151.82789 5982 ft 154 kts 330°
2026-05-05 12:40 -28.50634 151.82250 5981 ft 150 kts 338°
2026-05-05 12:40 -28.49632 151.81898 5978 ft 157 kts 345°
2026-05-05 12:41 -28.48554 151.81618 5982 ft 158 kts 348°
2026-05-05 12:41 -28.47480 151.81346 5980 ft 158 kts 348°
2026-05-05 12:41 -28.46412 151.81073 5981 ft 158 kts 348°
2026-05-05 12:41 -28.45342 151.80799 5981 ft 157 kts 348°
2026-05-05 12:42 -28.44274 151.80525 5976 ft 157 kts 348°
2026-05-05 12:42 -28.43205 151.80254 5980 ft 157 kts 348°
2026-05-05 12:42 -28.42134 151.79982 5981 ft 158 kts 348°
2026-05-05 12:42 -28.41076 151.79713 5979 ft 157 kts 348°
2026-05-05 12:43 -28.40008 151.79441 5977 ft 157 kts 348°
2026-05-05 12:43 -28.38935 151.79168 5979 ft 158 kts 348°
2026-05-05 12:43 -28.37865 151.78897 5977 ft 157 kts 348°
2026-05-05 12:43 -28.36794 151.78626 5978 ft 157 kts 348°
2026-05-05 12:44 -28.35724 151.78354 5979 ft 157 kts 348°
2026-05-05 12:44 -28.34653 151.78082 5976 ft 157 kts 348°
2026-05-05 12:44 -28.33584 151.77811 5974 ft 158 kts 348°
2026-05-05 12:44 -28.32515 151.77539 5973 ft 157 kts 348°
2026-05-05 12:45 -28.31445 151.77266 5975 ft 158 kts 348°
2026-05-05 12:45 -28.30374 151.76992 5976 ft 158 kts 348°
2026-05-05 12:45 -28.29303 151.76717 5973 ft 158 kts 348°
2026-05-05 12:45 -28.28236 151.76445 5969 ft 157 kts 348°
2026-05-05 12:46 -28.27162 151.76172 5973 ft 158 kts 348°
2026-05-05 12:46 -28.26103 151.75904 5972 ft 157 kts 348°
2026-05-05 12:46 -28.25032 151.75631 5970 ft 158 kts 348°
2026-05-05 12:46 -28.23961 151.75357 5970 ft 158 kts 348°
2026-05-05 12:47 -28.22891 151.75084 5967 ft 158 kts 348°
2026-05-05 12:47 -28.21817 151.74810 5969 ft 158 kts 348°
2026-05-05 12:47 -28.20743 151.74535 5969 ft 158 kts 348°
2026-05-05 12:47 -28.19671 151.74260 5968 ft 158 kts 348°
2026-05-05 12:48 -28.18599 151.73986 5967 ft 158 kts 348°
2026-05-05 12:48 -28.17530 151.73712 5968 ft 158 kts 348°
2026-05-05 12:48 -28.16460 151.73438 5967 ft 157 kts 348°
2026-05-05 12:48 -28.15388 151.73159 5967 ft 158 kts 348°
2026-05-05 12:49 -28.14318 151.72881 5968 ft 158 kts 348°
2026-05-05 12:49 -28.13246 151.72600 5968 ft 157 kts 348°
2026-05-05 12:49 -28.12176 151.72323 5963 ft 158 kts 348°
2026-05-05 12:49 -28.11109 151.72047 5966 ft 158 kts 348°
2026-05-05 12:50 -28.10038 151.71772 5963 ft 158 kts 348°
2026-05-05 12:50 -28.08965 151.71494 5964 ft 158 kts 348°
2026-05-05 12:50 -28.07907 151.71221 5968 ft 158 kts 348°
2026-05-05 12:50 -28.06834 151.70945 5967 ft 158 kts 348°
2026-05-05 12:51 -28.05757 151.70669 5965 ft 158 kts 348°
2026-05-05 12:51 -28.04681 151.70392 5961 ft 158 kts 348°
2026-05-05 12:51 -28.03607 151.70114 5964 ft 159 kts 348°
2026-05-05 12:51 -28.02532 151.69837 5965 ft 158 kts 348°
2026-05-05 12:52 -28.01456 151.69560 5964 ft 158 kts 348°
2026-05-05 12:52 -28.00383 151.69284 5967 ft 159 kts 348°
2026-05-05 12:52 -27.99303 151.69007 5965 ft 159 kts 348°
2026-05-05 12:52 -27.98227 151.68730 5964 ft 159 kts 348°
2026-05-05 12:53 -27.97147 151.68452 5965 ft 159 kts 348°
2026-05-05 12:53 -27.96080 151.68183 5970 ft 154 kts 348°
2026-05-05 12:53 -27.95027 151.68012 5968 ft 157 kts 354°
2026-05-05 12:53 -27.93922 151.67853 5964 ft 159 kts 354°
2026-05-05 12:54 -27.91729 151.67535 5966 ft 159 kts 354°
2026-05-05 12:54 -27.90630 151.67376 5958 ft 160 kts 354°
2026-05-05 12:54 -27.89527 151.67213 5961 ft 159 kts 354°
2026-05-05 12:55 -27.88426 151.67050 5964 ft 159 kts 354°
2026-05-05 12:55 -27.87330 151.66890 5965 ft 159 kts 354°
2026-05-05 12:55 -27.86242 151.66730 5970 ft 160 kts 354°
2026-05-05 12:55 -27.85246 151.66584 5963 ft 160 kts 354°
2026-05-05 12:56 -27.84148 151.66421 5967 ft 159 kts 354°
2026-05-05 12:56 -27.83042 151.66256 5963 ft 160 kts 354°
2026-05-05 12:56 -27.81942 151.66094 5965 ft 160 kts 354°
2026-05-05 12:56 -27.80840 151.65932 5968 ft 159 kts 354°
2026-05-05 12:57 -27.79738 151.65769 5969 ft 160 kts 354°
2026-05-05 12:57 -27.78635 151.65607 5965 ft 160 kts 354°
2026-05-05 12:57 -27.77534 151.65444 5969 ft 160 kts 354°
2026-05-05 12:57 -27.76433 151.65282 5967 ft 159 kts 354°
2026-05-05 12:58 -27.75330 151.65119 5970 ft 159 kts 354°
2026-05-05 12:58 -27.74225 151.64957 5969 ft 160 kts 354°
2026-05-05 12:58 -27.73122 151.64794 5972 ft 160 kts 354°
2026-05-05 12:58 -27.72018 151.64634 5974 ft 160 kts 354°
2026-05-05 12:59 -27.70916 151.64474 5972 ft 160 kts 354°
2026-05-05 12:59 -27.69826 151.64315 5975 ft 158 kts 354°
2026-05-05 12:59 -27.68754 151.64181 5974 ft 152 kts 357°
2026-05-05 13:00 -27.66697 151.64426 5974 ft 151 kts 12°
2026-05-05 13:00 -27.65607 151.64660 5972 ft 161 kts 12°
2026-05-05 13:01 -27.62338 151.65352 5978 ft 159 kts 12°
2026-05-05 13:01 -27.61246 151.65582 5973 ft 160 kts 12°
2026-05-05 13:01 -27.60154 151.65810 5976 ft 159 kts 12°
2026-05-05 13:01 -27.59080 151.66035 5980 ft 159 kts 12°
2026-05-05 13:02 -27.57999 151.66239 5961 ft 157 kts 10°
2026-05-05 13:02 -27.56924 151.66424 5916 ft 156 kts 10°
2026-05-05 13:02 -27.55850 151.66604 5793 ft 154 kts
2026-05-05 13:02 -27.54773 151.66747 5474 ft 155 kts
2026-05-05 13:03 -27.53713 151.66878 5109 ft 155 kts
2026-05-05 13:03 -27.52645 151.67007 4615 ft 158 kts
2026-05-05 13:03 -27.51537 151.67140 4180 ft 154 kts
2026-05-05 13:03 -27.50540 151.67251 4032 ft 140 kts
2026-05-05 13:04 -27.49509 151.67369 3938 ft 162 kts
2026-05-05 13:04 -27.48290 151.67516 3623 ft 186 kts
2026-05-05 13:04 -27.47102 151.67658 3425 ft 158 kts
2026-05-05 13:04 -27.46056 151.67782 3339 ft 147 kts
2026-05-05 13:05 -27.44996 151.67915 3239 ft 167 kts
2026-05-05 13:05 -27.43819 151.68070 3106 ft 158 kts
2026-05-05 13:05 -27.42754 151.68210 2950 ft 156 kts
2026-05-05 13:05 -27.41681 151.68367 2646 ft 154 kts 12°
2026-05-05 13:06 -27.40742 151.68824 2523 ft 145 kts 43°
2026-05-05 13:06 -27.40399 151.69791 2290 ft 133 kts 95°
2026-05-05 13:06 -27.40650 151.70737 2151 ft 121 kts 111°
2026-05-05 13:06 -27.40817 151.71599 1902 ft 106 kts 97°
2026-05-05 13:07 -27.40882 151.72349 1581 ft 80 kts 100°
2026-05-05 13:07 -27.40939 151.72694 1480 ft 18 kts 100°
2026-05-05 13:07 -27.40950 151.72758 1388 ft 8 kts 98°
2026-05-05 13:07 -27.40964 151.72826 1361 ft 8 kts 96°
2026-05-05 13:08 -27.40974 151.72836 1350 ft 2 kts 104°
2026-05-05 13:08 -27.41013 151.72852 1351 ft 9 kts 201°
2026-05-05 13:08 -27.41098 151.72834 1349 ft 14 kts 208°
2026-05-05 13:08 -27.41161 151.72824 1341 ft 7 kts 218°
2026-05-05 13:09 -27.41197 151.72808 1338 ft 5 kts 189°
2026-05-05 13:09 -27.41244 151.72807 1338 ft 10 kts 190°
2026-05-05 13:09 -27.41287 151.72800 1338 ft 1 kts 169°
2026-05-05 13:09 -27.41302 151.72824 1338 ft 3 kts 79°
2026-05-05 13:10 -27.41279 151.72838 1338 ft 0 kts